• In Portugal
  • List of Countries
  • For 7 days
  • Water Temperature
  • Satellite Maps
  • Weather Map
  • Weather Widgets
  • user-avatar
    Login

    Hourly Weather Kerman

    Today, 21 October, Sunday

    Time Temperature Precipitation Wind Pressure Humidity
    00:00 +16°C° 0.1 mm 2 mps 608 mmHg 49%
    01:00 +16°C° 0.1 mm 1 mps 607 mmHg 51%
    02:00 +16°C° 0 mm 1 mps 607 mmHg 52%
    03:00 +15°C° 0 mm 1 mps 607 mmHg 52%
    04:00 +15°C° 0 mm 1 mps 607 mmHg 52%
    05:00 +15°C° 0 mm 1 mps 607 mmHg 51%
    06:00 +15°C° 0 mm 1 mps 607 mmHg 50%
    07:00 +15°C° 0 mm 1 mps 607 mmHg 49%
    08:00 +16°C° 0 mm 1 mps 608 mmHg 44%
    09:00 +18°C° 0 mm 1 mps 609 mmHg 39%
    10:00 +20°C° 0 mm 1 mps 610 mmHg 34%
    11:00 +20°C° 0 mm 2 mps 609 mmHg 32%
    12:00 +21°C° 0 mm 2 mps 609 mmHg 29%
    13:00 +21°C° 0 mm 2 mps 609 mmHg 27%
    14:00 +21°C° 0 mm 2 mps 609 mmHg 27%
    15:00 +21°C° 0 mm 2 mps 609 mmHg 27%
    16:00 +21°C° 0 mm 2 mps 609 mmHg 26%
    17:00 +21°C° 0 mm 2 mps 609 mmHg 27%
    18:00 +21°C° 0 mm 2 mps 609 mmHg 29%
    19:00 +21°C° 0 mm 1 mps 609 mmHg 30%
    20:00 +21°C° 0 mm 1 mps 609 mmHg 31%
    21:00 +20°C° 0 mm 1 mps 609 mmHg 33%
    22:00 +20°C° 0 mm 1 mps 609 mmHg 34%
    23:00 +19°C° 0 mm 1 mps 609 mmHg 36%

    Tomorrow, 22 October, Monday

    Time Temperature Precipitation Wind Pressure Humidity
    00:00 +19°C° 0 mm 1 mps 608 mmHg 38%
    01:00 +18°C° 0 mm 1 mps 608 mmHg 40%
    02:00 +18°C° 0 mm 1 mps 608 mmHg 41%
    03:00 +16°C° 0 mm 1 mps 608 mmHg 42%
    04:00 +16°C° 0 mm 1 mps 607 mmHg 44%
    05:00 +16°C° 0 mm 1 mps 608 mmHg 44%
    06:00 +15°C° 0 mm 1 mps 608 mmHg 44%
    07:00 +15°C° 0 mm 1 mps 608 mmHg 44%
    08:00 +18°C° 0 mm 1 mps 608 mmHg 40%
    09:00 +19°C° 0 mm 1 mps 609 mmHg 37%
    10:00 +20°C° 0 mm 1 mps 609 mmHg 33%
    11:00 +21°C° 0 mm 1 mps 609 mmHg 31%
    12:00 +21°C° 0 mm 2 mps 609 mmHg 30%
    13:00 +23°C° 0 mm 2 mps 609 mmHg 28%
    14:00 +23°C° 0 mm 2 mps 609 mmHg 27%
    15:00 +23°C° 0 mm 2 mps 608 mmHg 27%
    16:00 +23°C° 0 mm 2 mps 608 mmHg 26%
    17:00 +21°C° 0 mm 2 mps 608 mmHg 28%
    18:00 +21°C° 0 mm 2 mps 608 mmHg 29%
    19:00 +21°C° 0 mm 1 mps 608 mmHg 30%
    20:00 +21°C° 0 mm 1 mps 608 mmHg 31%
    21:00 +20°C° 0 mm 1 mps 608 mmHg 32%
    22:00 +20°C° 0 mm 1 mps 608 mmHg 33%
    23:00 +19°C° 0 mm 1 mps 608 mmHg 34%

    Day after tomorrow, 23 October, Tuesday

    Time Temperature Precipitation Wind Pressure Humidity
    00:00 +19°C° 0 mm 1 mps 607 mmHg 36%
    01:00 +18°C° 0 mm 1 mps 607 mmHg 38%
    02:00 +18°C° 0 mm 1 mps 607 mmHg 39%
    03:00 +15°C° 0 mm 0 mps 607 mmHg 41%
    04:00 +15°C° 0 mm 0 mps 606 mmHg 42%
    05:00 +15°C° 0 mm 0 mps 606 mmHg 42%
    06:00 +15°C° 0 mm 0 mps 607 mmHg 42%
    07:00 +15°C° 0 mm 0 mps 607 mmHg 41%
    08:00 +16°C° 0 mm 0 mps 607 mmHg 38%
    09:00 +17°C° 0 mm 0 mps 608 mmHg 35%
    10:00 +20°C° 0 mm 1 mps 609 mmHg 32%
    11:00 +21°C° 0 mm 1 mps 609 mmHg 30%
    12:00 +22°C° 0 mm 1 mps 608 mmHg 28%
    13:00 +21°C° 0 mm 2 mps 608 mmHg 26%
    14:00 +23°C° 0 mm 2 mps 608 mmHg 25%
    15:00 +23°C° 0 mm 2 mps 608 mmHg 25%
    16:00 +23°C° 0 mm 2 mps 608 mmHg 24%
    17:00 +21°C° 0 mm 2 mps 608 mmHg 25%
    18:00 +21°C° 0 mm 2 mps 607 mmHg 26%
    19:00 +20°C° 0 mm 2 mps 607 mmHg 27%
    20:00 +19°C° 0 mm 2 mps 607 mmHg 28%
    21:00 +20°C° 0 mm 1 mps 607 mmHg 30%
    22:00 +19°C° 0 mm 1 mps 607 mmHg 31%
    23:00 +19°C° 0 mm 1 mps 607 mmHg 33%

    24 October, Wednesday

    Time Temperature Precipitation Wind Pressure Humidity
    00:00 +18°C° 0 mm 1 mps 607 mmHg 35%
    01:00 +18°C° 0 mm 1 mps 606 mmHg 37%
    02:00 +16°C° 0 mm 1 mps 606 mmHg 38%
    03:00 +15°C° 0 mm 0 mps 606 mmHg 39%
    04:00 +14°C° 0 mm 0 mps 605 mmHg 40%
    05:00 +14°C° 0 mm 0 mps 605 mmHg 40%
    06:00 +14°C° 0 mm 0 mps 606 mmHg 40%
    07:00 +14°C° 0 mm 0 mps 606 mmHg 40%
    08:00 +15°C° 0 mm 0 mps 607 mmHg 36%
    09:00 +19°C° 0 mm 1 mps 607 mmHg 32%
    10:00 +20°C° 0 mm 1 mps 608 mmHg 27%
    11:00 +21°C° 0 mm 1 mps 608 mmHg 25%
    12:00 +22°C° 0 mm 1 mps 607 mmHg 24%
    13:00 +23°C° 0 mm 1 mps 607 mmHg 22%
    14:00 +23°C° 0 mm 2 mps 607 mmHg 21%
    15:00 +23°C° 0 mm 2 mps 607 mmHg 20%
    16:00 +23°C° 0 mm 2 mps 607 mmHg 20%
    17:00 +23°C° 0 mm 2 mps 607 mmHg 21%
    18:00 +21°C° 0 mm 2 mps 607 mmHg 22%
    19:00 +20°C° 0 mm 2 mps 607 mmHg 23%
    20:00 +20°C° 0 mm 1 mps 607 mmHg 25%
    21:00 +20°C° 0 mm 1 mps 607 mmHg 27%
    22:00 +19°C° 0 mm 1 mps 607 mmHg 29%
    23:00 +19°C° 0 mm 1 mps 607 mmHg 30%

    25 October, Thursday

    Time Temperature Precipitation Wind Pressure Humidity
    00:00 +18°C° 0 mm 1 mps 606 mmHg 30%
    01:00 +18°C° 0 mm 1 mps 606 mmHg 31%
    02:00 +16°C° 0 mm 1 mps 606 mmHg 32%
    03:00 +16°C° 0 mm 1 mps 605 mmHg 33%
    04:00 +15°C° 0 mm 1 mps 605 mmHg 34%
    05:00 +15°C° 0 mm 1 mps 605 mmHg 34%
    06:00 +15°C° 0 mm 1 mps 606 mmHg 33%
    07:00 +15°C° 0 mm 1 mps 606 mmHg 33%
    08:00 +18°C° 0 mm 1 mps 607 mmHg 30%
    09:00 +19°C° 0 mm 1 mps 608 mmHg 26%
    10:00 +21°C° 0 mm 1 mps 608 mmHg 23%
    11:00 +22°C° 0 mm 1 mps 608 mmHg 21%
    12:00 +23°C° 0 mm 1 mps 608 mmHg 20%
    13:00 +24°C° 0 mm 2 mps 608 mmHg 18%
    14:00 +24°C° 0 mm 2 mps 608 mmHg 18%
    15:00 +24°C° 0 mm 2 mps 608 mmHg 18%
    16:00 +24°C° 0 mm 2 mps 608 mmHg 18%
    17:00 +24°C° 0 mm 2 mps 608 mmHg 20%
    18:00 +23°C° 0 mm 1 mps 608 mmHg 22%
    19:00 +22°C° 0 mm 1 mps 608 mmHg 25%
    20:00 +21°C° 0 mm 1 mps 608 mmHg 25%
    21:00 +21°C° 0 mm 1 mps 608 mmHg 26%
    22:00 +20°C° 0 mm 1 mps 608 mmHg 27%
    23:00 +20°C° 0 mm 1 mps 607 mmHg 28%

    26 October, Friday

    Time Temperature Precipitation Wind Pressure Humidity
    00:00 +19°C° 0 mm 1 mps 607 mmHg 29%
    01:00 +17°C° 0 mm 2 mps 607 mmHg 30%
    02:00 +18°C° 0 mm 1 mps 607 mmHg 31%
    03:00 +16°C° 0 mm 1 mps 606 mmHg 33%
    04:00 +16°C° 0 mm 1 mps 606 mmHg 35%
    05:00 +16°C° 0 mm 1 mps 607 mmHg 35%
    06:00 +16°C° 0 mm 1 mps 607 mmHg 36%
    07:00 +16°C° 0 mm 1 mps 608 mmHg 37%
    08:00 +19°C° 0 mm 1 mps 609 mmHg 33%
    09:00 +20°C° 0 mm 1 mps 609 mmHg 29%
    10:00 +22°C° 0 mm 1 mps 610 mmHg 25%
    11:00 +23°C° 0 mm 1 mps 610 mmHg 23%
    12:00 +24°C° 0 mm 1 mps 610 mmHg 21%
    13:00 +25°C° 0 mm 2 mps 610 mmHg 19%
    14:00 +25°C° 0 mm 2 mps 610 mmHg 18%
    15:00 +25°C° 0 mm 2 mps 609 mmHg 18%
    16:00 +25°C° 0 mm 2 mps 609 mmHg 17%
    17:00 +24°C° 0 mm 2 mps 609 mmHg 19%
    18:00 +23°C° 0 mm 1 mps 609 mmHg 22%
    19:00 +23°C° 0 mm 1 mps 609 mmHg 24%
    20:00 +22°C° 0 mm 1 mps 609 mmHg 25%
    21:00 +21°C° 0 mm 1 mps 609 mmHg 26%
    22:00 +21°C° 0 mm 1 mps 609 mmHg 27%
    23:00 +20°C° 0 mm 1 mps 608 mmHg 27%
    Show more